This demonstration page uses our WeatherBlox Daily Observations layout. Learn more.

Left ArrowRight Arrow

44.8408, -93.29828

Hourly Observations for September 30, 2019

Temp ( °F °C ) Dew Point ( °F °C ) Humidity (%) Winds ( mph kmh ) Pressure ( in mb ) Visibility ( mi km ) Precip ( " mm )
12:53 am 00:53 Cloudy 60 15.6 58 14.4 93 93 SE 13 20 29.92 1013 10 16 0.00 0.00
1:53 am 01:53 Cloudy 61 16.1 59 15 93 93 SE 13 20 29.88 1012 9 14 0.00 0.00
2:53 am 02:53 Cloudy 62 16.7 60 15.6 93 93 SE 10 17 29.86 1011 10 16 0.00 0.00
3:53 am 03:53 Cloudy 62 16.7 60 15.6 93 93 ESE 9 15 29.84 1010 8 13 0.00 0.00
4:53 am 04:53 Cloudy with Light Rain 64 17.8 62 16.7 93 93 SE 12 19 29.80 1009 8 13 0.00 0.00
5:53 am 05:53 Cloudy 66 18.9 64 17.8 93 93 SE 15 24 29.77 1008 9 14 0.02 0.51
6:53 am 06:53 Cloudy 69 20.6 66 18.9 90 90 SSE 16 26 29.73 1007 9 14 0.00 0.00
7:20 am 07:20 Cloudy 70 21.1 67 19.4 90 90 S 12 19 29.70 1006 10 16 0.00 0.00
7:53 am 07:53 Cloudy 71 21.7 68 20 90 90 S 13 20 29.72 1006 9 14 0.00 0.00
8:53 am 08:53 Cloudy 74 23.3 69 20.6 85 85 S 7 11 29.74 1007 10 16 0.00 0.00
9:53 am 09:53 Cloudy 74 23.3 69 20.6 85 85 S 7 11 29.73 1007 10 16 0.00 0.00
10:53 am 10:53 Cloudy 74 23.3 70 21.1 88 88 Calm 29.73 1007 9 14 0.00 0.00
11:53 am 11:53 Mostly Cloudy 78 25.6 71 21.7 79 79 S 14 22 29.71 1006 10 16 0.00 0.00
12:53 pm 12:53 Partly Cloudy 80 26.7 71 21.7 74 74 S 12 19 29.70 1006 10 16 0.00 0.00
1:36 pm 13:36 Cloudy 81 27.2 71 21.7 72 72 S 10 17 29.66 1004 10 16 0.00 0.00
1:53 pm 13:53 Cloudy 81 27.2 71 21.7 72 72 S 10 17 29.68 1005 10 16 0.00 0.00
2:07 pm 14:07 Cloudy 82 27.8 71 21.7 69 69 S 12 19 29.64 1004 10 16 0.00 0.00
2:53 pm 14:53 Cloudy 82 27.8 72 22.2 72 72 S 10 17 29.67 1005 10 16 0.00 0.00
3:53 pm 15:53 Mostly Cloudy 84 28.9 72 22.2 67 67 S 10 17 29.67 1005 10 16 0.00 0.00
4:53 pm 16:53 Partly Cloudy 85 29.4 72 22.2 65 65 SSW 8 13 29.66 1005 10 16 0.00 0.00
5:53 pm 17:53 Partly Cloudy 86 30 71 21.7 61 61 SSW 8 13 29.67 1005 10 16 0.00 0.00
6:53 pm 18:53 Partly Cloudy 83 28.3 70 21.1 65 65 S 6 9 29.67 1005 10 16 0.00 0.00
7:24 pm 19:24 Mostly Cloudy with Nearby Thunderstorms 81 27.2 71 21.7 72 72 SSE 10 17 29.63 1003 10 16 0.00 0.00
7:36 pm 19:36 Mostly Cloudy with Thunderstorms 82 27.8 71 21.7 69 69 WSW 6 9 29.64 1004 8 13 0.00 0.00
7:41 pm 19:41 Mostly Cloudy with Strong Thunderstorms 78 25.6 72 22.2 82 82 W 23 37 29.67 1005 2 2 0.05 1.27
7:45 pm 19:45 Cloudy with Strong Thunderstorms 75 23.9 71 21.7 88 88 W 14 22 29.70 1006 3 5 0.11 2.79
7:53 pm 19:53 Cloudy with Thunderstorms 75 23.9 71 21.7 88 88 Calm 29.70 1006 7 11 0.22 5.59
8:04 pm 20:04 Mostly Cloudy with Nearby Thunderstorms 74 23.3 70 21.1 88 88 NNW 8 13 29.70 1006 7 11 0.00 0.00
8:11 pm 20:11 Mostly Cloudy 74 23.3 69 20.6 85 85 WNW 6 9 29.70 1006 10 16 0.00 0.00
8:53 pm 20:53 Mostly Cloudy 74 23.3 71 21.7 91 91 WSW 7 11 29.74 1007 10 16 0.00 0.00
9:53 pm 21:53 Mostly Cloudy 72 22.2 67 19.4 84 84 W 9 15 29.80 1009 10 16 0.00 0.00
10:51 pm 22:51 Mostly Cloudy 70 21 64 18 83 83 WNW 7 11 29.80 1009 10 16 0.00 0.00
10:53 pm 22:53 Mostly Cloudy 69 20.6 65 18.3 87 87 WNW 10 17 29.81 1010 10 16 0.00 0.00
11:05 pm 23:05 Cloudy 69 20.6 65 18.3 87 87 WNW 8 13 29.81 1009 10 16 0.00 0.00
11:31 pm 23:31 Cloudy 68 20 64 17.8 87 87 NW 10 17 29.81 1009 10 16 0.00 0.00
11:53 pm 23:53 Cloudy 68 20 63 17.2 84 84 WNW 12 19 29.83 1010 10 16 0.00 0.00

Powered by AerisWeather